Time,TemperatureF,DewpointF,PressureIn,WindDirection,WindDirectionDegrees,WindSpeedMPH,WindSpeedGustMPH,Humidity,HourlyPrecipIn,Conditions,Clouds,dailyrainin,SoftwareType,DateUTC
2013-06-06 00:01:00,70.8,69.3,29.92,SE,136,0.0,1.0,95,0.01,,---,0.00,VWS V14.00,2013-06-06 04:01:00,
2013-06-06 00:06:00,70.7,69.2,29.92,SE,136,0.0,4.0,95,0.01,,---,0.00,VWS V14.00,2013-06-06 04:06:00,
2013-06-06 00:11:00,70.7,69.2,29.92,SE,136,0.0,4.0,95,0.01,,---,0.00,VWS V14.00,2013-06-06 04:11:00,
2013-06-06 00:17:00,70.7,69.2,29.92,SE,136,1.0,4.0,95,0.01,,---,0.00,VWS V14.00,2013-06-06 04:17:00,
2013-06-06 00:22:00,70.7,69.2,29.92,SE,136,0.0,5.0,95,0.01,,---,0.00,VWS V14.00,2013-06-06 04:22:00,
2013-06-06 00:27:00,70.7,69.2,29.92,SE,136,1.0,2.0,95,0.00,,---,0.00,VWS V14.00,2013-06-06 04:27:00,
2013-06-06 00:32:00,70.7,69.2,29.92,SE,136,0.0,4.0,95,0.00,,---,0.00,VWS V14.00,2013-06-06 04:32:00,
2013-06-06 00:37:00,70.8,69.3,29.92,SE,136,1.0,4.0,95,0.00,,---,0.00,VWS V14.00,2013-06-06 04:37:00,
2013-06-06 00:42:00,70.8,69.3,29.92,SE,136,0.0,5.0,95,0.00,,---,0.00,VWS V14.00,2013-06-06 04:42:00,
2013-06-06 00:47:00,70.8,69.3,29.92,SE,136,0.0,5.0,95,0.00,,---,0.00,VWS V14.00,2013-06-06 04:47:00,
2013-06-06 00:52:00,70.8,69.3,29.91,SE,136,1.0,5.0,95,0.00,,---,0.00,VWS V14.00,2013-06-06 04:52:00,
2013-06-06 00:57:00,70.8,69.3,29.91,SE,136,0.0,0.0,95,0.00,,---,0.00,VWS V14.00,2013-06-06 04:57:00,
2013-06-06 01:02:00,70.8,69.3,29.91,SE,136,0.0,5.0,95,0.00,,---,0.00,VWS V14.00,2013-06-06 05:02:00,
2013-06-06 01:07:00,70.8,69.3,29.91,SE,136,0.0,5.0,95,0.00,,---,0.00,VWS V14.00,2013-06-06 05:07:00,
2013-06-06 01:12:00,70.8,69.3,29.90,SE,136,0.0,5.0,95,0.00,,---,0.00,VWS V14.00,2013-06-06 05:12:00,
2013-06-06 01:17:00,70.8,69.3,29.91,SE,136,0.0,5.0,95,0.00,,---,0.00,VWS V14.00,2013-06-06 05:17:00,
2013-06-06 01:22:00,70.7,69.2,29.90,SE,136,0.0,5.0,95,0.00,,---,0.00,VWS V14.00,2013-06-06 05:22:00,
2013-06-06 01:27:00,70.7,69.2,29.90,SE,136,0.0,2.0,95,0.00,,---,0.00,VWS V14.00,2013-06-06 05:27:00,
2013-06-06 01:32:00,70.7,69.2,29.90,SE,136,0.0,2.0,95,0.00,,---,0.00,VWS V14.00,2013-06-06 05:32:00,
2013-06-06 01:37:00,70.7,69.2,29.90,SE,136,0.0,2.0,95,0.00,,---,0.00,VWS V14.00,2013-06-06 05:37:00,
2013-06-06 01:45:00,70.6,69.1,29.90,SE,136,0.0,0.0,95,0.00,,---,0.00,VWS V14.00,2013-06-06 05:45:00,
2013-06-06 01:50:00,70.6,69.1,29.90,SE,136,0.0,1.0,95,0.00,,---,0.00,VWS V14.00,2013-06-06 05:50:00,
2013-06-06 01:55:00,70.6,69.1,29.90,SE,136,0.0,1.0,95,0.00,,---,0.00,VWS V14.00,2013-06-06 05:55:00,
2013-06-06 02:00:00,70.5,69.0,29.90,SE,136,0.0,2.0,95,0.00,,---,0.00,VWS V14.00,2013-06-06 06:00:00,
2013-06-06 02:05:00,70.5,69.0,29.90,SW,220,3.0,5.0,95,0.00,,---,0.00,VWS V14.00,2013-06-06 06:05:00,
2013-06-06 02:10:00,70.5,69.0,29.90,SW,217,0.0,5.0,95,0.00,,---,0.00,VWS V14.00,2013-06-06 06:10:00,
2013-06-06 02:15:00,70.5,69.3,29.90,SSW,206,0.0,5.0,96,0.00,,---,0.00,VWS V14.00,2013-06-06 06:15:00,
2013-06-06 02:20:00,70.5,69.0,29.89,South,169,4.0,6.0,95,0.00,,---,0.00,VWS V14.00,2013-06-06 06:20:00,
2013-06-06 02:25:00,70.4,69.2,29.89,SSE,161,0.0,6.0,96,0.00,,---,0.00,VWS V14.00,2013-06-06 06:25:00,
2013-06-06 02:30:00,70.4,69.2,29.89,SSE,161,0.0,4.0,96,0.00,,---,0.00,VWS V14.00,2013-06-06 06:30:00,
2013-06-06 02:35:00,70.4,69.2,29.89,SSE,161,0.0,4.0,96,0.00,,---,0.00,VWS V14.00,2013-06-06 06:35:00,
2013-06-06 02:40:00,70.4,69.2,29.89,SSE,161,0.0,4.0,96,0.00,,---,0.00,VWS V14.00,2013-06-06 06:40:00,
2013-06-06 02:45:00,70.4,69.2,29.89,SSE,161,0.0,4.0,96,0.00,,---,0.00,VWS V14.00,2013-06-06 06:45:00,
2013-06-06 02:50:00,70.4,69.2,29.88,SSE,161,0.0,4.0,96,0.00,,---,0.00,VWS V14.00,2013-06-06 06:50:00,
2013-06-06 02:55:00,70.4,69.2,29.88,SSE,161,0.0,4.0,96,0.00,,---,0.00,VWS V14.00,2013-06-06 06:55:00,
2013-06-06 03:00:00,70.4,69.2,29.88,SSE,161,0.0,0.0,96,0.00,,---,0.00,VWS V14.00,2013-06-06 07:00:00,
2013-06-06 03:05:00,70.4,69.2,29.88,SSE,161,0.0,1.0,96,0.03,,---,0.03,VWS V14.00,2013-06-06 07:05:00,
2013-06-06 03:10:00,70.4,69.2,29.88,SSE,161,0.0,1.0,96,0.03,,---,0.03,VWS V14.00,2013-06-06 07:10:00,
2013-06-06 03:15:00,70.4,69.2,29.87,SSE,161,0.0,1.0,96,0.03,,---,0.03,VWS V14.00,2013-06-06 07:15:00,
2013-06-06 03:20:00,70.4,69.2,29.87,SSE,161,0.0,1.0,96,0.03,,---,0.03,VWS V14.00,2013-06-06 07:20:00,
2013-06-06 03:25:00,70.4,69.2,29.87,SSE,161,0.0,1.0,96,0.03,,---,0.03,VWS V14.00,2013-06-06 07:25:00,
2013-06-06 03:30:00,70.4,69.2,29.87,SSE,161,0.0,0.0,96,0.03,,---,0.03,VWS V14.00,2013-06-06 07:30:00,
2013-06-06 03:35:00,70.4,69.2,29.87,SSE,161,0.0,0.0,96,0.03,,---,0.03,VWS V14.00,2013-06-06 07:35:00,
2013-06-06 03:40:00,70.4,69.2,29.86,SSE,161,0.0,0.0,96,0.03,,---,0.03,VWS V14.00,2013-06-06 07:40:00,
2013-06-06 03:45:00,70.5,69.3,29.86,SSE,161,0.0,0.0,96,0.03,,---,0.03,VWS V14.00,2013-06-06 07:45:00,
2013-06-06 03:50:00,70.5,69.3,29.86,SSE,161,0.0,0.0,96,0.03,,---,0.03,VWS V14.00,2013-06-06 07:50:00,
2013-06-06 03:55:00,70.5,69.3,29.86,SSE,161,0.0,1.0,96,0.03,,---,0.03,VWS V14.00,2013-06-06 07:55:00,
2013-06-06 04:00:00,70.5,69.3,29.86,SSE,161,0.0,0.0,96,0.03,,---,0.03,VWS V14.00,2013-06-06 08:00:00,
2013-06-06 04:05:00,70.4,69.2,29.86,SSE,161,1.0,1.0,96,0.03,,---,0.03,VWS V14.00,2013-06-06 08:05:00,
2013-06-06 04:10:00,70.4,69.2,29.85,SSE,161,0.0,2.0,96,0.05,,---,0.05,VWS V14.00,2013-06-06 08:10:00,
2013-06-06 04:15:00,70.4,69.2,29.85,SSE,161,0.0,2.0,96,0.05,,---,0.05,VWS V14.00,2013-06-06 08:15:00,
2013-06-06 04:20:00,70.4,69.2,29.85,SSE,161,0.0,2.0,96,0.06,,---,0.06,VWS V14.00,2013-06-06 08:20:00,
2013-06-06 04:25:00,70.4,69.2,29.85,SSE,161,0.0,2.0,96,0.06,,---,0.06,VWS V14.00,2013-06-06 08:25:00,
2013-06-06 04:30:00,70.4,69.2,29.85,SSE,161,0.0,2.0,96,0.03,,---,0.06,VWS V14.00,2013-06-06 08:30:00,
2013-06-06 04:35:00,70.4,69.2,29.85,SSE,161,0.0,2.0,96,0.03,,---,0.06,VWS V14.00,2013-06-06 08:35:00,
2013-06-06 04:40:00,70.4,69.2,29.85,SSE,161,0.0,2.0,96,0.03,,---,0.06,VWS V14.00,2013-06-06 08:40:00,
2013-06-06 04:45:00,70.4,69.2,29.85,SSE,161,0.0,2.0,96,0.03,,---,0.06,VWS V14.00,2013-06-06 08:45:00,
2013-06-06 04:50:00,70.4,69.2,29.85,SSE,161,0.0,2.0,96,0.03,,---,0.06,VWS V14.00,2013-06-06 08:50:00,
2013-06-06 04:55:00,70.4,69.2,29.85,SSE,165,0.0,5.0,96,0.03,,---,0.06,VWS V14.00,2013-06-06 08:55:00,
2013-06-06 05:00:00,70.3,69.1,29.85,SSE,167,0.0,4.0,96,0.03,,---,0.06,VWS V14.00,2013-06-06 09:00:00,
2013-06-06 05:05:00,70.4,69.2,29.85,SSE,167,0.0,4.0,96,0.03,,---,0.06,VWS V14.00,2013-06-06 09:05:00,
2013-06-06 05:10:00,70.4,69.2,29.85,SSE,167,0.0,4.0,96,0.03,,---,0.06,VWS V14.00,2013-06-06 09:10:00,
2013-06-06 05:15:00,70.4,69.2,29.84,SSE,167,0.0,4.0,96,0.03,,---,0.06,VWS V14.00,2013-06-06 09:15:00,
2013-06-06 05:20:00,70.4,69.2,29.85,SSE,167,0.0,4.0,96,0.03,,---,0.06,VWS V14.00,2013-06-06 09:20:00,
2013-06-06 05:25:00,70.5,69.3,29.85,SSE,167,0.0,4.0,96,0.03,,---,0.06,VWS V14.00,2013-06-06 09:25:00,
2013-06-06 05:30:00,70.4,69.2,29.84,SSE,167,0.0,1.0,96,0.00,,---,0.06,VWS V14.00,2013-06-06 09:30:00,
2013-06-06 05:35:00,70.5,69.3,29.85,SSE,167,0.0,2.0,96,0.00,,---,0.06,VWS V14.00,2013-06-06 09:35:00,
2013-06-06 05:42:00,70.5,69.3,29.85,SSE,168,0.0,0.0,96,0.00,,---,0.06,VWS V14.00,2013-06-06 09:42:00,
2013-06-06 05:47:00,70.5,69.3,29.85,South,169,0.0,4.0,96,0.00,,---,0.06,VWS V14.00,2013-06-06 09:47:00,
2013-06-06 05:52:00,70.5,69.3,29.85,South,169,1.0,4.0,96,0.00,,---,0.06,VWS V14.00,2013-06-06 09:52:00,
2013-06-06 05:57:00,70.5,69.3,29.85,South,169,0.0,4.0,96,0.00,,---,0.06,VWS V14.00,2013-06-06 09:57:00,
2013-06-06 06:02:00,70.6,69.4,29.85,South,171,0.0,4.0,96,0.00,,---,0.06,VWS V14.00,2013-06-06 10:02:00,
2013-06-06 06:07:00,70.6,69.4,29.85,South,173,1.0,4.0,96,0.00,,---,0.06,VWS V14.00,2013-06-06 10:07:00,
2013-06-06 06:12:00,70.6,69.4,29.85,South,173,0.0,4.0,96,0.00,,---,0.06,VWS V14.00,2013-06-06 10:12:00,
2013-06-06 06:17:00,70.6,69.4,29.85,South,184,1.0,5.0,96,0.00,,---,0.06,VWS V14.00,2013-06-06 10:17:00,
2013-06-06 06:22:00,70.7,69.5,29.85,WNW,285,0.0,5.0,96,0.00,,---,0.06,VWS V14.00,2013-06-06 10:22:00,
2013-06-06 06:27:00,70.7,69.5,29.85,WNW,285,0.0,0.0,96,0.00,,---,0.06,VWS V14.00,2013-06-06 10:27:00,
2013-06-06 06:32:00,70.8,69.6,29.85,West,281,4.0,4.0,96,0.00,,---,0.06,VWS V14.00,2013-06-06 10:32:00,
2013-06-06 06:37:00,70.8,69.6,29.85,West,279,0.0,4.0,96,0.00,,---,0.06,VWS V14.00,2013-06-06 10:37:00,
2013-06-06 06:42:00,70.8,69.6,29.85,West,279,0.0,4.0,96,0.00,,---,0.06,VWS V14.00,2013-06-06 10:42:00,
2013-06-06 06:47:00,70.8,69.6,29.85,SW,227,0.0,5.0,96,0.00,,---,0.06,VWS V14.00,2013-06-06 10:47:00,
2013-06-06 06:52:00,70.8,69.6,29.85,SW,233,1.0,5.0,96,0.00,,---,0.06,VWS V14.00,2013-06-06 10:52:00,
2013-06-06 06:57:00,70.7,69.5,29.85,SW,230,1.0,3.0,96,0.00,,---,0.06,VWS V14.00,2013-06-06 10:57:00,
2013-06-06 07:02:00,70.8,69.6,29.85,SW,230,0.0,3.0,96,0.00,,---,0.06,VWS V14.00,2013-06-06 11:02:00,
2013-06-06 07:07:00,70.8,69.6,29.85,SW,232,0.0,4.0,96,0.00,,---,0.06,VWS V14.00,2013-06-06 11:07:00,
2013-06-06 07:12:00,70.7,69.5,29.85,SW,232,1.0,4.0,96,0.00,,---,0.06,VWS V14.00,2013-06-06 11:12:00,
2013-06-06 07:17:00,70.7,69.5,29.85,SW,232,0.0,4.0,96,0.00,,---,0.06,VWS V14.00,2013-06-06 11:17:00,
2013-06-06 07:22:00,70.7,69.5,29.85,SW,232,2.0,4.0,96,0.00,,---,0.06,VWS V14.00,2013-06-06 11:22:00,
2013-06-06 07:27:00,70.7,69.5,29.85,SW,232,0.0,3.0,96,0.00,,---,0.06,VWS V14.00,2013-06-06 11:27:00,
2013-06-06 07:32:00,70.8,69.6,29.85,SW,227,0.0,5.0,96,0.00,,---,0.06,VWS V14.00,2013-06-06 11:32:00,
2013-06-06 07:37:00,70.8,69.6,29.85,SW,227,0.0,5.0,96,0.00,,---,0.06,VWS V14.00,2013-06-06 11:37:00,
2013-06-06 07:42:00,70.8,69.6,29.85,SW,227,1.0,5.0,96,0.00,,---,0.06,VWS V14.00,2013-06-06 11:42:00,
2013-06-06 07:47:00,70.9,69.7,29.85,SW,227,0.0,5.0,96,0.00,,---,0.06,VWS V14.00,2013-06-06 11:47:00,
2013-06-06 07:52:00,70.9,69.7,29.85,SW,216,0.0,5.0,96,0.00,,---,0.06,VWS V14.00,2013-06-06 11:52:00,
2013-06-06 07:57:00,71.0,69.5,29.85,SW,216,1.0,1.0,95,0.00,,---,0.06,VWS V14.00,2013-06-06 11:57:00,
2013-06-06 08:02:00,71.1,69.6,29.85,SW,216,0.0,1.0,95,0.00,,---,0.06,VWS V14.00,2013-06-06 12:02:00,
2013-06-06 08:07:00,71.2,69.7,29.85,SW,216,0.0,2.0,95,0.00,,---,0.06,VWS V14.00,2013-06-06 12:07:00,
2013-06-06 08:12:00,71.3,69.8,29.85,SW,216,0.0,2.0,95,0.00,,---,0.06,VWS V14.00,2013-06-06 12:12:00,
2013-06-06 08:17:00,71.5,70.0,29.85,SW,216,0.0,2.0,95,0.00,,---,0.06,VWS V14.00,2013-06-06 12:17:00,
2013-06-06 08:22:00,71.5,70.0,29.85,SW,216,1.0,3.0,95,0.00,,---,0.06,VWS V14.00,2013-06-06 12:22:00,
2013-06-06 08:27:00,71.6,70.1,29.85,SW,216,0.0,1.0,95,0.00,,---,0.06,VWS V14.00,2013-06-06 12:27:00,
2013-06-06 08:32:00,71.6,70.1,29.85,SW,216,0.0,1.0,95,0.00,,---,0.06,VWS V14.00,2013-06-06 12:32:00,
2013-06-06 08:37:00,71.7,70.2,29.85,SW,216,0.0,1.0,95,0.00,,---,0.06,VWS V14.00,2013-06-06 12:37:00,
2013-06-06 08:42:00,71.8,70.3,29.85,SW,216,0.0,1.0,95,0.00,,---,0.06,VWS V14.00,2013-06-06 12:42:00,
2013-06-06 08:47:00,71.9,70.1,29.85,SW,216,0.0,1.0,94,0.00,,---,0.06,VWS V14.00,2013-06-06 12:47:00,
2013-06-06 08:52:00,71.8,69.7,29.85,SW,216,0.0,4.0,93,0.00,,---,0.06,VWS V14.00,2013-06-06 12:52:00,
2013-06-06 08:57:00,71.8,69.7,29.85,SW,216,0.0,0.0,93,0.00,,---,0.06,VWS V14.00,2013-06-06 12:57:00,
2013-06-06 09:02:00,71.9,70.1,29.86,SW,216,0.0,0.0,94,0.00,,---,0.06,VWS V14.00,2013-06-06 13:02:00,
2013-06-06 09:07:00,71.9,70.1,29.86,SW,216,0.0,3.0,94,0.00,,---,0.06,VWS V14.00,2013-06-06 13:07:00,
2013-06-06 09:12:00,71.9,70.1,29.86,SW,216,0.0,3.0,94,0.00,,---,0.06,VWS V14.00,2013-06-06 13:12:00,
2013-06-06 09:17:00,72.0,70.2,29.87,SW,216,0.0,3.0,94,0.00,,---,0.06,VWS V14.00,2013-06-06 13:17:00,
2013-06-06 09:22:00,72.1,70.3,29.87,SW,216,0.0,3.0,94,0.00,,---,0.06,VWS V14.00,2013-06-06 13:22:00,
2013-06-06 09:27:00,72.1,70.0,29.86,SW,216,0.0,0.0,93,0.00,,---,0.06,VWS V14.00,2013-06-06 13:27:00,
2013-06-06 09:32:00,72.1,70.0,29.86,SW,216,0.0,1.0,93,0.00,,---,0.06,VWS V14.00,2013-06-06 13:32:00,
2013-06-06 09:37:00,72.2,70.1,29.86,SW,216,0.0,1.0,93,0.00,,---,0.06,VWS V14.00,2013-06-06 13:37:00,
2013-06-06 09:42:00,72.2,70.1,29.87,SW,216,0.0,1.0,93,0.00,,---,0.06,VWS V14.00,2013-06-06 13:42:00,
2013-06-06 09:47:00,72.4,70.3,29.86,SW,216,0.0,1.0,93,0.00,,---,0.06,VWS V14.00,2013-06-06 13:47:00,
2013-06-06 09:52:00,72.5,70.1,29.86,SW,216,0.0,1.0,92,0.00,,---,0.06,VWS V14.00,2013-06-06 13:52:00,
2013-06-06 09:57:00,72.6,70.2,29.87,SW,216,0.0,0.0,92,0.00,,---,0.06,VWS V14.00,2013-06-06 13:57:00,
2013-06-06 10:02:00,72.7,70.2,29.87,SW,216,0.0,1.0,92,0.00,,---,0.06,VWS V14.00,2013-06-06 14:02:00,
2013-06-06 10:07:00,72.8,70.0,29.87,SW,216,0.0,2.0,91,0.00,,---,0.06,VWS V14.00,2013-06-06 14:07:00,
2013-06-06 10:12:00,72.8,70.0,29.87,SW,216,0.0,2.0,91,0.00,,---,0.06,VWS V14.00,2013-06-06 14:12:00,
2013-06-06 10:17:00,72.9,70.4,29.87,SW,216,0.0,2.0,92,0.00,,---,0.06,VWS V14.00,2013-06-06 14:17:00,
2013-06-06 10:22:00,73.1,70.3,29.87,SW,216,0.0,2.0,91,0.00,,---,0.06,VWS V14.00,2013-06-06 14:22:00,
2013-06-06 10:27:00,73.2,70.4,29.87,SW,216,0.0,1.0,91,0.00,,---,0.06,VWS V14.00,2013-06-06 14:27:00,
2013-06-06 10:32:00,73.3,70.5,29.88,SW,216,0.0,1.0,91,0.00,,---,0.06,VWS V14.00,2013-06-06 14:32:00,
2013-06-06 10:37:00,73.5,70.7,29.88,SW,216,0.0,1.0,91,0.00,,---,0.06,VWS V14.00,2013-06-06 14:37:00,
2013-06-06 10:42:00,73.5,70.4,29.88,SW,216,1.0,3.0,90,0.00,,---,0.06,VWS V14.00,2013-06-06 14:42:00,
2013-06-06 10:47:00,73.5,70.4,29.88,SW,215,1.0,4.0,90,0.01,,---,0.07,VWS V14.00,2013-06-06 14:47:00,
2013-06-06 10:52:00,73.3,70.2,29.88,SW,215,0.0,4.0,90,0.01,,---,0.07,VWS V14.00,2013-06-06 14:52:00,
2013-06-06 10:57:00,73.2,70.1,29.88,SW,215,0.0,0.0,90,0.01,,---,0.07,VWS V14.00,2013-06-06 14:57:00,
2013-06-06 11:02:00,73.1,70.0,29.88,SW,215,0.0,1.0,90,0.01,,---,0.07,VWS V14.00,2013-06-06 15:02:00,
2013-06-06 11:07:00,73.0,70.2,29.88,SW,215,0.0,1.0,91,0.01,,---,0.07,VWS V14.00,2013-06-06 15:07:00,
2013-06-06 11:12:00,73.0,70.5,29.88,SW,215,0.0,1.0,92,0.01,,---,0.07,VWS V14.00,2013-06-06 15:12:00,
2013-06-06 11:17:00,73.0,70.2,29.88,SW,215,0.0,1.0,91,0.01,,---,0.07,VWS V14.00,2013-06-06 15:17:00,
2013-06-06 11:22:00,73.0,70.2,29.88,SW,215,0.0,1.0,91,0.01,,---,0.07,VWS V14.00,2013-06-06 15:22:00,
2013-06-06 11:27:00,73.1,70.6,29.88,SW,215,0.0,0.0,92,0.01,,---,0.07,VWS V14.00,2013-06-06 15:27:00,
2013-06-06 11:32:00,73.2,70.7,29.88,SW,215,0.0,1.0,92,0.01,,---,0.07,VWS V14.00,2013-06-06 15:32:00,
2013-06-06 11:37:00,73.2,70.4,29.88,SW,215,0.0,1.0,91,0.01,,---,0.07,VWS V14.00,2013-06-06 15:37:00,
2013-06-06 11:42:00,73.2,70.7,29.88,SW,215,0.0,3.0,92,0.01,,---,0.07,VWS V14.00,2013-06-06 15:42:00,
2013-06-06 11:47:00,73.4,70.9,29.88,SW,215,0.0,3.0,92,0.01,,---,0.07,VWS V14.00,2013-06-06 15:47:00,
2013-06-06 11:52:00,73.5,70.7,29.88,SW,218,0.0,3.0,91,0.03,,---,0.09,VWS V14.00,2013-06-06 15:52:00,
2013-06-06 11:57:00,73.4,70.6,29.88,SW,218,3.0,4.0,91,0.21,,---,0.28,VWS V14.00,2013-06-06 15:57:00,
2013-06-06 12:02:00,73.0,70.5,29.88,SW,217,0.0,5.0,92,0.23,,---,0.30,VWS V14.00,2013-06-06 16:02:00,
2013-06-06 12:07:00,73.0,70.9,29.88,SW,217,2.0,5.0,93,0.23,,---,0.30,VWS V14.00,2013-06-06 16:07:00,
2013-06-06 12:12:00,72.9,70.8,29.88,SW,217,0.0,5.0,93,0.23,,---,0.30,VWS V14.00,2013-06-06 16:12:00,
2013-06-06 12:17:00,72.9,70.8,29.88,NW,310,1.0,5.0,93,0.23,,---,0.30,VWS V14.00,2013-06-06 16:17:00,
2013-06-06 12:28:00,73.0,71.2,29.88,NW,309,0.0,0.0,94,0.23,,---,0.30,VWS V14.00,2013-06-06 16:28:00,
2013-06-06 12:33:00,73.2,71.1,29.87,NW,310,0.0,1.0,93,0.23,,---,0.30,VWS V14.00,2013-06-06 16:33:00,
2013-06-06 12:38:00,73.4,71.3,29.87,NW,313,0.0,2.0,93,0.23,,---,0.30,VWS V14.00,2013-06-06 16:38:00,
2013-06-06 12:43:00,73.6,71.5,29.87,NW,313,1.0,2.0,93,0.23,,---,0.30,VWS V14.00,2013-06-06 16:43:00,
2013-06-06 12:48:00,73.8,71.7,29.86,NW,319,0.0,4.0,93,0.23,,---,0.30,VWS V14.00,2013-06-06 16:48:00,
2013-06-06 12:53:00,73.9,71.8,29.86,NW,321,1.0,4.0,93,0.23,,---,0.30,VWS V14.00,2013-06-06 16:53:00,
2013-06-06 12:58:00,74.1,71.9,29.86,NW,323,2.0,2.0,93,0.06,,---,0.30,VWS V14.00,2013-06-06 16:58:00,
2013-06-06 13:03:00,74.2,72.1,29.86,NNW,331,0.0,4.0,93,0.06,,---,0.30,VWS V14.00,2013-06-06 17:03:00,
2013-06-06 13:08:00,74.2,71.7,29.86,NNW,331,0.0,4.0,92,0.06,,---,0.30,VWS V14.00,2013-06-06 17:08:00,
2013-06-06 13:13:00,74.1,71.6,29.86,NNW,332,0.0,4.0,92,0.06,,---,0.30,VWS V14.00,2013-06-06 17:13:00,
2013-06-06 13:18:00,74.1,71.6,29.86,NNW,332,0.0,4.0,92,0.06,,---,0.30,VWS V14.00,2013-06-06 17:18:00,
2013-06-06 13:23:00,74.1,71.3,29.86,NNW,332,0.0,4.0,91,0.06,,---,0.30,VWS V14.00,2013-06-06 17:23:00,
2013-06-06 13:28:00,74.2,71.7,29.85,NNW,332,0.0,1.0,92,0.00,,---,0.30,VWS V14.00,2013-06-06 17:28:00,
2013-06-06 13:34:00,74.4,72.2,29.85,NNW,332,1.0,2.0,93,0.00,,---,0.30,VWS V14.00,2013-06-06 17:34:00,
2013-06-06 13:39:00,74.4,71.9,29.85,NNW,332,1.0,2.0,92,0.00,,---,0.30,VWS V14.00,2013-06-06 17:39:00,
2013-06-06 13:44:00,74.4,71.9,29.85,NNW,332,0.0,4.0,92,0.00,,---,0.30,VWS V14.00,2013-06-06 17:44:00,
2013-06-06 13:49:00,74.3,71.5,29.85,WNW,301,1.0,5.0,91,0.00,,---,0.30,VWS V14.00,2013-06-06 17:49:00,
2013-06-06 13:54:00,73.9,70.8,29.85,NNE,13,3.0,6.0,90,0.00,,---,0.30,VWS V14.00,2013-06-06 17:54:00,
2013-06-06 13:59:00,73.6,70.8,29.84,NNE,26,0.0,5.0,91,0.00,,---,0.30,VWS V14.00,2013-06-06 17:59:00,
2013-06-06 14:04:00,73.5,70.7,29.84,NNW,339,2.0,5.0,91,0.00,,---,0.30,VWS V14.00,2013-06-06 18:04:00,
2013-06-06 14:09:00,73.5,71.0,29.84,NNW,336,0.0,5.0,92,0.00,,---,0.30,VWS V14.00,2013-06-06 18:09:00,
2013-06-06 14:14:00,73.6,71.1,29.84,NNW,336,0.0,5.0,92,0.00,,---,0.30,VWS V14.00,2013-06-06 18:14:00,
2013-06-06 14:19:00,73.7,71.2,29.84,WNW,297,0.0,5.0,92,0.00,,---,0.30,VWS V14.00,2013-06-06 18:19:00,
2013-06-06 14:24:00,73.6,71.1,29.83,WNW,286,0.0,5.0,92,0.00,,---,0.30,VWS V14.00,2013-06-06 18:24:00,
2013-06-06 14:29:00,73.6,71.5,29.83,WNW,297,2.0,2.0,93,0.00,,---,0.30,VWS V14.00,2013-06-06 18:29:00,
2013-06-06 14:34:00,73.7,71.6,29.83,WNW,294,0.0,4.0,93,0.00,,---,0.30,VWS V14.00,2013-06-06 18:34:00,
2013-06-06 14:39:00,73.9,71.8,29.83,WNW,294,0.0,4.0,93,0.00,,---,0.30,VWS V14.00,2013-06-06 18:39:00,
2013-06-06 14:44:00,74.1,71.3,29.82,WNW,294,0.0,4.0,91,0.00,,---,0.30,VWS V14.00,2013-06-06 18:44:00,
2013-06-06 14:49:00,74.3,71.5,29.82,WNW,286,0.0,5.0,91,0.00,,---,0.30,VWS V14.00,2013-06-06 18:49:00,
2013-06-06 14:54:00,74.6,71.5,29.82,WNW,296,0.0,5.0,90,0.00,,---,0.30,VWS V14.00,2013-06-06 18:54:00,
2013-06-06 14:59:00,74.8,71.7,29.82,WNW,296,0.0,2.0,90,0.00,,---,0.30,VWS V14.00,2013-06-06 18:59:00,
2013-06-06 15:04:00,74.9,71.8,29.82,WNW,296,1.0,2.0,90,0.00,,---,0.30,VWS V14.00,2013-06-06 19:04:00,
2013-06-06 15:09:00,75.0,71.9,29.82,WNW,296,0.0,2.0,90,0.00,,---,0.30,VWS V14.00,2013-06-06 19:09:00,
2013-06-06 15:14:00,75.1,71.6,29.81,WNW,296,0.0,2.0,89,0.00,,---,0.30,VWS V14.00,2013-06-06 19:14:00,
2013-06-06 15:19:00,75.1,71.6,29.81,WNW,289,0.0,2.0,89,0.00,,---,0.30,VWS V14.00,2013-06-06 19:19:00,
2013-06-06 15:24:00,75.2,72.1,29.81,NW,313,0.0,4.0,90,0.00,,---,0.30,VWS V14.00,2013-06-06 19:24:00,
2013-06-06 15:29:00,75.3,72.2,29.81,NW,313,1.0,1.0,90,0.00,,---,0.30,VWS V14.00,2013-06-06 19:29:00,
2013-06-06 15:34:00,75.3,72.2,29.81,NW,313,1.0,2.0,90,0.00,,---,0.30,VWS V14.00,2013-06-06 19:34:00,
2013-06-06 15:39:00,75.3,71.8,29.80,NW,313,1.0,1.0,89,0.00,,---,0.30,VWS V14.00,2013-06-06 19:39:00,
2013-06-06 15:47:00,75.4,71.9,29.80,NNW,332,2.0,2.0,89,0.00,,---,0.30,VWS V14.00,2013-06-06 19:47:00,
2013-06-06 15:52:00,75.2,71.1,29.81,WSW,241,2.0,11.0,87,0.00,,---,0.30,VWS V14.00,2013-06-06 19:52:00,
2013-06-06 15:57:00,74.4,69.9,29.80,WSW,247,5.0,7.0,86,0.00,,---,0.30,VWS V14.00,2013-06-06 19:57:00,
2013-06-06 16:02:00,73.6,69.5,29.81,SW,225,2.0,10.0,87,0.02,,---,0.32,VWS V14.00,2013-06-06 20:02:00,
2013-06-06 16:07:00,72.6,68.8,29.81,SW,221,0.0,10.0,88,0.03,,---,0.33,VWS V14.00,2013-06-06 20:07:00,
2013-06-06 16:12:00,71.9,68.8,29.81,SW,228,0.0,10.0,90,0.04,,---,0.34,VWS V14.00,2013-06-06 20:12:00,
2013-06-06 16:17:00,71.4,68.6,29.81,South,169,0.0,10.0,91,0.05,,---,0.35,VWS V14.00,2013-06-06 20:17:00,
2013-06-06 16:22:00,71.1,68.7,29.81,SSW,193,0.0,10.0,92,0.06,,---,0.36,VWS V14.00,2013-06-06 20:22:00,
2013-06-06 16:27:00,70.8,68.4,29.81,SSW,193,0.0,1.0,92,0.07,,---,0.37,VWS V14.00,2013-06-06 20:27:00,
2013-06-06 16:32:00,70.7,68.6,29.80,SSW,193,0.0,1.0,93,0.08,,---,0.38,VWS V14.00,2013-06-06 20:32:00,
2013-06-06 16:37:00,70.7,68.6,29.81,SSW,203,0.0,2.0,93,0.08,,---,0.38,VWS V14.00,2013-06-06 20:37:00,
2013-06-06 16:42:00,70.6,68.5,29.81,SSW,204,2.0,2.0,93,0.09,,---,0.39,VWS V14.00,2013-06-06 20:42:00,
2013-06-06 16:47:00,70.6,68.5,29.80,SSW,205,0.0,3.0,93,0.09,,---,0.39,VWS V14.00,2013-06-06 20:47:00,
2013-06-06 16:52:00,70.6,68.8,29.80,SSW,205,0.0,3.0,94,0.09,,---,0.39,VWS V14.00,2013-06-06 20:52:00,
2013-06-06 16:57:00,70.7,68.9,29.80,SSW,205,0.0,1.0,94,0.10,,---,0.40,VWS V14.00,2013-06-06 20:57:00,
2013-06-06 17:02:00,70.8,69.0,29.80,SSW,205,0.0,1.0,94,0.10,,---,0.40,VWS V14.00,2013-06-06 21:02:00,
2013-06-06 17:07:00,70.9,69.1,29.80,SSW,205,0.0,1.0,94,0.10,,---,0.40,VWS V14.00,2013-06-06 21:07:00,
2013-06-06 17:12:00,71.0,69.2,29.80,SSW,205,0.0,2.0,94,0.10,,---,0.40,VWS V14.00,2013-06-06 21:12:00,
2013-06-06 17:17:00,71.0,69.2,29.80,SSW,205,0.0,2.0,94,0.10,,---,0.40,VWS V14.00,2013-06-06 21:17:00,
2013-06-06 17:22:00,71.0,69.2,29.80,SSW,205,0.0,2.0,94,0.11,,---,0.41,VWS V14.00,2013-06-06 21:22:00,
2013-06-06 17:27:00,70.9,69.1,29.80,SSW,205,0.0,1.0,94,0.04,,---,0.41,VWS V14.00,2013-06-06 21:27:00,
2013-06-06 17:32:00,70.9,69.1,29.80,SSW,205,0.0,1.0,94,0.04,,---,0.41,VWS V14.00,2013-06-06 21:32:00,
2013-06-06 17:37:00,70.9,69.1,29.79,SSW,205,0.0,2.0,94,0.05,,---,0.42,VWS V14.00,2013-06-06 21:37:00,
2013-06-06 17:42:00,70.8,69.0,29.79,SSW,205,0.0,2.0,94,0.05,,---,0.42,VWS V14.00,2013-06-06 21:42:00,
2013-06-06 17:47:00,70.8,69.0,29.79,SSW,205,0.0,2.0,94,0.05,,---,0.42,VWS V14.00,2013-06-06 21:47:00,
2013-06-06 17:52:00,70.8,69.0,29.79,SSW,205,0.0,2.0,94,0.05,,---,0.42,VWS V14.00,2013-06-06 21:52:00,
2013-06-06 17:57:00,70.8,69.0,29.78,SSW,205,0.0,0.0,94,0.04,,---,0.43,VWS V14.00,2013-06-06 21:57:00,
2013-06-06 18:02:00,70.8,69.0,29.78,SSW,205,0.0,1.0,94,0.04,,---,0.43,VWS V14.00,2013-06-06 22:02:00,
2013-06-06 18:07:00,70.8,69.0,29.78,SSW,205,0.0,1.0,94,0.04,,---,0.43,VWS V14.00,2013-06-06 22:07:00,
2013-06-06 18:12:00,70.8,69.3,29.78,SSW,205,0.0,1.0,95,0.05,,---,0.44,VWS V14.00,2013-06-06 22:12:00,
2013-06-06 18:17:00,70.9,69.4,29.78,SSW,205,0.0,1.0,95,0.05,,---,0.44,VWS V14.00,2013-06-06 22:17:00,
2013-06-06 18:22:00,71.0,69.5,29.77,SSW,200,0.0,3.0,95,0.05,,---,0.44,VWS V14.00,2013-06-06 22:22:00,
2013-06-06 18:27:00,71.0,69.5,29.78,SSW,200,1.0,1.0,95,0.03,,---,0.44,VWS V14.00,2013-06-06 22:27:00,
2013-06-06 18:32:00,71.0,69.5,29.77,SSW,200,1.0,1.0,95,0.03,,---,0.44,VWS V14.00,2013-06-06 22:32:00,
2013-06-06 18:37:00,70.9,69.4,29.77,SSW,200,1.0,1.0,95,0.03,,---,0.44,VWS V14.00,2013-06-06 22:37:00,
2013-06-06 18:42:00,71.0,69.5,29.77,SSW,200,0.0,3.0,95,0.04,,---,0.45,VWS V14.00,2013-06-06 22:42:00,
2013-06-06 18:47:00,71.0,69.5,29.77,SSW,200,0.0,3.0,95,0.04,,---,0.45,VWS V14.00,2013-06-06 22:47:00,
2013-06-06 18:52:00,70.9,69.4,29.76,SSW,200,2.0,3.0,95,0.05,,---,0.46,VWS V14.00,2013-06-06 22:52:00,
2013-06-06 18:57:00,70.9,69.4,29.76,SSW,200,0.0,1.0,95,0.04,,---,0.46,VWS V14.00,2013-06-06 22:57:00,
2013-06-06 19:02:00,70.8,69.3,29.76,SSW,200,0.0,2.0,95,0.05,,---,0.47,VWS V14.00,2013-06-06 23:02:00,
2013-06-06 19:07:00,70.8,69.3,29.76,SSW,200,0.0,2.0,95,0.06,,---,0.48,VWS V14.00,2013-06-06 23:07:00,
2013-06-06 19:12:00,70.7,69.2,29.76,SSW,200,0.0,2.0,95,0.08,,---,0.50,VWS V14.00,2013-06-06 23:12:00,
2013-06-06 19:17:00,70.7,69.2,29.76,ESE,105,0.0,6.0,95,0.09,,---,0.51,VWS V14.00,2013-06-06 23:17:00,
2013-06-06 19:22:00,70.6,69.1,29.76,ESE,105,0.0,6.0,95,0.10,,---,0.52,VWS V14.00,2013-06-06 23:22:00,
2013-06-06 19:27:00,70.6,69.1,29.76,ESE,105,0.0,1.0,95,0.08,,---,0.52,VWS V14.00,2013-06-06 23:27:00,
2013-06-06 19:32:00,70.5,69.0,29.75,ESE,105,0.0,2.0,95,0.09,,---,0.53,VWS V14.00,2013-06-06 23:32:00,
2013-06-06 19:37:00,70.5,69.0,29.76,ESE,105,0.0,2.0,95,0.09,,---,0.53,VWS V14.00,2013-06-06 23:37:00,
2013-06-06 19:42:00,70.4,68.9,29.76,ESE,105,1.0,2.0,95,0.10,,---,0.54,VWS V14.00,2013-06-06 23:42:00,
2013-06-06 19:47:00,70.3,68.8,29.75,ESE,105,0.0,2.0,95,0.10,,---,0.54,VWS V14.00,2013-06-06 23:47:00,
2013-06-06 19:52:00,70.3,68.8,29.75,ESE,105,2.0,2.0,95,0.10,,---,0.54,VWS V14.00,2013-06-06 23:52:00,
2013-06-06 19:57:00,70.3,68.8,29.75,ESE,105,0.0,1.0,95,0.09,,---,0.55,VWS V14.00,2013-06-06 23:57:00,
2013-06-06 20:02:00,70.2,68.7,29.75,ESE,105,1.0,2.0,95,0.09,,---,0.55,VWS V14.00,2013-06-07 00:02:00,
2013-06-06 20:07:00,70.1,68.6,29.75,ESE,105,2.0,2.0,95,0.10,,---,0.56,VWS V14.00,2013-06-07 00:07:00,
2013-06-06 20:12:00,70.1,68.6,29.75,ESE,112,0.0,4.0,95,0.10,,---,0.56,VWS V14.00,2013-06-07 00:12:00,
2013-06-06 20:17:00,70.0,68.5,29.75,SE,128,0.0,4.0,95,0.10,,---,0.56,VWS V14.00,2013-06-07 00:17:00,
2013-06-06 20:22:00,69.9,68.4,29.74,ESE,119,0.0,5.0,95,0.10,,---,0.56,VWS V14.00,2013-06-07 00:22:00,
2013-06-06 20:27:00,69.9,68.4,29.74,ESE,105,4.0,5.0,95,0.04,,---,0.56,VWS V14.00,2013-06-07 00:27:00,
2013-06-06 20:32:00,69.8,68.6,29.74,ESE,105,1.0,5.0,96,0.04,,---,0.56,VWS V14.00,2013-06-07 00:32:00,
2013-06-06 20:37:00,69.8,68.6,29.74,ESE,104,0.0,5.0,96,0.04,,---,0.56,VWS V14.00,2013-06-07 00:37:00,
2013-06-06 20:42:00,69.8,68.6,29.74,ESE,103,1.0,5.0,96,0.05,,---,0.57,VWS V14.00,2013-06-07 00:42:00,
2013-06-06 20:47:00,69.7,68.5,29.74,ESE,103,0.0,5.0,96,0.05,,---,0.57,VWS V14.00,2013-06-07 00:47:00,
2013-06-06 20:52:00,69.7,68.5,29.74,ESE,103,0.0,5.0,96,0.05,,---,0.57,VWS V14.00,2013-06-07 00:52:00,
2013-06-06 20:57:00,69.7,68.5,29.74,ESE,103,0.0,2.0,96,0.03,,---,0.57,VWS V14.00,2013-06-07 00:57:00,
2013-06-06 21:02:00,69.7,68.5,29.73,ESE,103,4.0,4.0,96,0.03,,---,0.57,VWS V14.00,2013-06-07 01:02:00,
2013-06-06 21:07:00,69.6,68.4,29.73,East,101,2.0,5.0,96,0.03,,---,0.57,VWS V14.00,2013-06-07 01:07:00,
2013-06-06 21:12:00,69.6,68.4,29.73,East,101,0.0,5.0,96,0.04,,---,0.58,VWS V14.00,2013-06-07 01:12:00,
2013-06-06 21:17:00,69.6,68.4,29.72,East,101,0.0,5.0,96,0.04,,---,0.58,VWS V14.00,2013-06-07 01:17:00,
2013-06-06 21:22:00,69.6,68.4,29.73,East,101,0.0,5.0,96,0.04,,---,0.58,VWS V14.00,2013-06-07 01:22:00,
2013-06-06 21:27:00,69.6,68.4,29.73,East,100,0.0,4.0,96,0.02,,---,0.58,VWS V14.00,2013-06-07 01:27:00,
2013-06-06 21:32:00,69.5,68.3,29.73,East,100,1.0,4.0,96,0.02,,---,0.58,VWS V14.00,2013-06-07 01:32:00,
2013-06-06 21:37:00,69.5,68.3,29.73,East,99,0.0,4.0,96,0.03,,---,0.59,VWS V14.00,2013-06-07 01:37:00,
2013-06-06 21:42:00,69.5,68.3,29.73,East,99,2.0,4.0,96,0.04,,---,0.60,VWS V14.00,2013-06-07 01:42:00,
2013-06-06 21:47:00,69.5,68.3,29.73,East,99,0.0,5.0,96,0.06,,---,0.62,VWS V14.00,2013-06-07 01:47:00,
2013-06-06 21:52:00,69.5,68.3,29.72,East,94,0.0,5.0,96,0.08,,---,0.64,VWS V14.00,2013-06-07 01:52:00,
2013-06-06 21:57:00,69.4,68.2,29.72,ENE,78,0.0,2.0,96,0.09,,---,0.66,VWS V14.00,2013-06-07 01:57:00,
2013-06-06 22:02:00,69.4,68.2,29.72,ENE,78,0.0,2.0,96,0.11,,---,0.68,VWS V14.00,2013-06-07 02:02:00,
2013-06-06 22:07:00,69.4,68.2,29.72,ENE,78,3.0,4.0,96,0.15,,---,0.72,VWS V14.00,2013-06-07 02:07:00,
2013-06-06 22:12:00,69.4,68.2,29.72,ENE,78,1.0,4.0,96,0.19,,---,0.76,VWS V14.00,2013-06-07 02:12:00,
2013-06-06 22:17:00,69.3,68.1,29.72,NE,53,3.0,6.0,96,0.23,,---,0.80,VWS V14.00,2013-06-07 02:17:00,
2013-06-06 22:22:00,69.3,68.1,29.72,ENE,69,2.0,6.0,96,0.28,,---,0.85,VWS V14.00,2013-06-07 02:22:00,
2013-06-06 22:27:00,69.2,68.0,29.72,ENE,63,1.0,4.0,96,0.32,,---,0.90,VWS V14.00,2013-06-07 02:27:00,
2013-06-06 22:32:00,69.2,68.0,29.72,East,82,3.0,6.0,96,0.37,,---,0.95,VWS V14.00,2013-06-07 02:32:00,
2013-06-06 22:37:00,69.2,68.0,29.71,East,84,3.0,6.0,96,0.41,,---,0.99,VWS V14.00,2013-06-07 02:37:00,
2013-06-06 22:42:00,69.1,67.9,29.71,ENE,69,2.0,6.0,96,0.45,,---,1.03,VWS V14.00,2013-06-07 02:42:00,
2013-06-06 22:47:00,69.1,67.9,29.71,ENE,78,3.0,6.0,96,0.48,,---,1.06,VWS V14.00,2013-06-07 02:47:00,
2013-06-06 22:52:00,69.1,67.9,29.71,East,90,4.0,7.0,96,0.50,,---,1.08,VWS V14.00,2013-06-07 02:52:00,
2013-06-06 22:57:00,69.1,67.9,29.71,East,81,3.0,7.0,96,0.44,,---,1.09,VWS V14.00,2013-06-07 02:57:00,
2013-06-06 23:02:00,69.1,67.9,29.70,ENE,75,5.0,9.0,96,0.46,,---,1.11,VWS V14.00,2013-06-07 03:02:00,
2013-06-06 23:07:00,69.1,67.9,29.71,East,96,4.0,9.0,96,0.48,,---,1.13,VWS V14.00,2013-06-07 03:07:00,
2013-06-06 23:12:00,69.1,67.9,29.70,ESE,114,0.0,9.0,96,0.50,,---,1.15,VWS V14.00,2013-06-07 03:12:00,
2013-06-06 23:17:00,69.2,68.0,29.70,NE,47,0.0,9.0,96,0.53,,---,1.18,VWS V14.00,2013-06-07 03:17:00,
2013-06-06 23:22:00,69.2,68.0,29.70,ENE,68,2.0,9.0,96,0.54,,---,1.19,VWS V14.00,2013-06-07 03:22:00,
2013-06-06 23:27:00,69.1,67.9,29.70,ENE,63,3.0,6.0,96,0.31,,---,1.20,VWS V14.00,2013-06-07 03:27:00,
2013-06-06 23:32:00,69.1,67.9,29.70,NE,49,2.0,8.0,96,0.31,,---,1.20,VWS V14.00,2013-06-07 03:32:00,
2013-06-06 23:37:00,69.1,67.9,29.70,East,92,4.0,8.0,96,0.32,,---,1.21,VWS V14.00,2013-06-07 03:37:00,
2013-06-06 23:42:00,69.2,68.0,29.69,ENE,63,4.0,12.0,96,0.33,,---,1.22,VWS V14.00,2013-06-07 03:42:00,
2013-06-06 23:47:00,69.1,67.9,29.69,NE,40,9.0,12.0,96,0.34,,---,1.23,VWS V14.00,2013-06-07 03:47:00,
2013-06-06 23:52:00,69.2,68.0,29.69,ESE,107,2.0,12.0,96,0.35,,---,1.24,VWS V14.00,2013-06-07 03:52:00,
2013-06-06 23:57:00,69.2,68.0,29.69,NE,56,6.0,9.0,96,0.16,,---,0.00,VWS V14.00,2013-06-07 03:57:00,